"Pseudo-MPEC" for SWC0002

Created 2023 Jun 17 17:22:13 UT using Find_Orb

Click here for an explanation of pseudo-MPECs

 
 Astrometry: 
     SWC0002*KB2023 05 286+gs;'urZ64H(UG/Astrometrypp)KsseTUR!)h-J;+6OfMclOkc859
     SWC0002 KB2023 05 28^8rT:redacted;C8?1^pclick@6r$XYNs[Z0dF7Ml@?U$1(hereX859
     SWC0002 KB2023 05 28LKJkg6*7V@cZyBcrXw(Bwspi9iE=MPRLfor?6V0explanationGv859

Station data:
(859) Wykrota Observatory-CEAMIG  (S19.823980 W43.690300)  Brazil. 0.30-m
   Schmidt-Cassegrain.

Orbital elements:  SWC0002
   Perihelion 2023 May 22.39500 +/- 45.1 TT =  9:28:47 (JD 2460086.89500)
Epoch 2023 May 28.0 TT = JDT 2460092.5   Earth MOID: 0.3498   Ju: 0.9808
M   1.24358371 +/- 19               (J2000 ecliptic)             AutoNEOCP
n   0.22187024 +/- 0.24             Peri.  187.90059 +/- 60
a   2.70231934 +/- 1.95             Node    52.15703 +/- 47
e   0.4963060 +/- 0.252             Incl.    8.36372 +/- 4.0
P   4.44                   H 20.75  G  0.15   U 11.8  SR
q 1.36114179 +/- 0.305    Q 4.04349690 +/- 54.9
From 3 observations 2023 May 28 (16.6 min); mean residual 0".35
Residuals in arcseconds: 
230528 859  .23+  .26-    230528 859  .47-  .52+    230528 859  .24+  .27-    

Ephemerides (geocentric):
Date (UTC) HH   RA             Dec           delta  r     elong  mag " sig PA
---- --------  ------------   ------------  ------ ------ -----  --- --------
2023 06 17 17  15 49 59.088   -33 50 14.75  .40322 1.3881 153.3 20.5  49d 166
2023 06 17 18  15 50 01.381   -33 50 55.69  .40338 1.3882 153.3 20.5  50d 166
2023 06 17 19  15 50 03.679   -33 51 36.57  .40354 1.3883 153.3 20.5  50d 166
2023 06 17 20  15 50 05.980   -33 52 17.40  .40369 1.3884 153.2 20.5  50d 166
2023 06 17 21  15 50 08.286   -33 52 58.17  .40385 1.3885 153.2 20.5  50d 166
2023 06 17 22  15 50 10.596   -33 53 38.89  .40401 1.3886 153.2 20.5  50d 166
2023 06 17 23  15 50 12.910   -33 54 19.56  .40417 1.3886 153.2 20.5  50d 166
2023 06 18 00  15 50 15.228   -33 55 00.17  .40433 1.3887 153.1 20.5  50d 166
2023 06 18 01  15 50 17.551   -33 55 40.73  .40449 1.3888 153.1 20.5  50d 166
2023 06 18 02  15 50 19.878   -33 56 21.23  .40465 1.3889 153.1 20.5  50d 166
2023 06 18 03  15 50 22.209   -33 57 01.69  .40481 1.3890 153.0 20.5  50d 166
2023 06 18 04  15 50 24.545   -33 57 42.08  .40497 1.3891 153.0 20.5  50d 166
2023 06 18 05  15 50 26.884   -33 58 22.43  .40513 1.3891 153.0 20.5  50d 166
2023 06 18 06  15 50 29.228   -33 59 02.72  .40529 1.3892 152.9 20.5  50d 166
2023 06 18 07  15 50 31.576   -33 59 42.96  .40545 1.3893 152.9 20.5  50d 166
2023 06 18 08  15 50 33.928   -34 00 23.15  .40561 1.3894 152.9 20.5  50d 166
2023 06 18 09  15 50 36.285   -34 01 03.28  .40577 1.3895 152.9 20.5  50d 166
2023 06 18 10  15 50 38.646   -34 01 43.36  .40593 1.3896 152.8 20.5  50d 166
2023 06 18 11  15 50 41.011   -34 02 23.38  .40609 1.3897 152.8 20.5  50d 166
2023 06 18 12  15 50 43.380   -34 03 03.35  .40625 1.3898 152.8 20.5  50d 166
2023 06 18 13  15 50 45.754   -34 03 43.27  .40641 1.3898 152.7 20.5  50d 166
2023 06 18 14  15 50 48.132   -34 04 23.13  .40658 1.3899 152.7 20.6  50d 166
2023 06 18 15  15 50 50.514   -34 05 02.95  .40674 1.3900 152.7 20.6  50d 166
2023 06 18 16  15 50 52.900   -34 05 42.70  .40690 1.3901 152.7 20.6  50d 166
2023 06 18 17  15 50 55.291   -34 06 22.41  .40706 1.3902 152.6 20.6  50d 166
2023 06 18 18  15 50 57.685   -34 07 02.06  .40723 1.3903 152.6 20.6  50d 166
2023 06 18 19  15 51 00.085   -34 07 41.66  .40739 1.3904 152.6 20.6  50d 166
2023 06 18 20  15 51 02.488   -34 08 21.20  .40755 1.3904 152.5 20.6  50d 166
2023 06 18 21  15 51 04.896   -34 09 00.69  .40772 1.3905 152.5 20.6  50d 166
2023 06 18 22  15 51 07.307   -34 09 40.13  .40788 1.3906 152.5 20.6  50d 166
2023 06 18 23  15 51 09.723   -34 10 19.51  .40804 1.3907 152.5 20.6  50d 166
2023 06 19 00  15 51 12.144   -34 10 58.85  .40821 1.3908 152.4 20.6  50d 166
2023 06 19 01  15 51 14.568   -34 11 38.12  .40837 1.3909 152.4 20.6  50d 166
2023 06 19 02  15 51 16.997   -34 12 17.35  .40854 1.3910 152.4 20.6  50d 166
2023 06 19 03  15 51 19.431   -34 12 56.52  .40870 1.3911 152.3 20.6  50d 166
2023 06 19 04  15 51 21.868   -34 13 35.64  .40887 1.3911 152.3 20.6  50d 166
2023 06 19 05  15 51 24.310   -34 14 14.70  .40903 1.3912 152.3 20.6  50d 166
2023 06 19 06  15 51 26.756   -34 14 53.71  .40920 1.3913 152.3 20.6  50d 166
2023 06 19 07  15 51 29.206   -34 15 32.67  .40936 1.3914 152.2 20.6  50d 166
2023 06 19 08  15 51 31.660   -34 16 11.58  .40953 1.3915 152.2 20.6  50d 166
2023 06 19 09  15 51 34.119   -34 16 50.43  .40969 1.3916 152.2 20.6  50d 166
2023 06 19 10  15 51 36.582   -34 17 29.23  .40986 1.3917 152.1 20.6  50d 165
2023 06 19 11  15 51 39.049   -34 18 07.97  .41003 1.3918 152.1 20.6  50d 165
2023 06 19 12  15 51 41.521   -34 18 46.67  .41019 1.3919 152.1 20.6  50d 165
2023 06 19 13  15 51 43.997   -34 19 25.30  .41036 1.3920 152.0 20.6  50d 165
2023 06 19 14  15 51 46.477   -34 20 03.89  .41053 1.3920 152.0 20.6  50d 165
2023 06 19 15  15 51 48.961   -34 20 42.42  .41070 1.3921 152.0 20.6  50d 165
2023 06 19 16  15 51 51.450   -34 21 20.90  .41086 1.3922 152.0 20.6  50d 165